Weather History for Texarkana, AR

Change the Weather History Date:

Thursday, January 5, 2012

  Actual Average Record
Temperature  
Mean Temperature 49 °F 43 °F  
Max Temperature 65 °F 53 °F 75 °F (1927)
Min Temperature 32 °F 34 °F 13 °F (1959)
Degree Days  
Heating Degree Days 16 22  
Month to date heating degree days 98 110  
Since 1 July heating degree days 1011 1177  
Cooling Degree Days 0 0  
Month to date cooling degree days 0 0  
Year to date cooling degree days 0 0  
Moisture  
Dew Point 32 °F    
Average Humidity 58    
Maximum Humidity 89    
Minimum Humidity 26    
Precipitation  
Precipitation 0.00 in 0.13 in 4.30 in (1932)
Month to date precipitation 0.00 0.64  
Year to date precipitation 0.00 0.64  
Snow  
Snow 0.00 in - - ()
Month to date snowfall 0.0  
Since 1 July snowfall 0.0  
Snow Depth 0.00 in    
Sea Level Pressure  
Sea Level Pressure 30.22 in    
Wind  
Wind Speed 4 mph (SW)    
Max Wind Speed 10 mph    
Max Gust Speed 13 mph    
Visibility 10 miles    
Events      
T = Trace of Precipitation, MM = Missing Value Source: NWS Daily Summary

Daily Weather History Graph

Daily Weather History Graph

Search for Another Location

Airport:

Trip Planner

Search our weather history database for the weather conditions in past years. The results will help you decide how hot, cold, wet, or windy it might be!

Date:

Astronomy

Jan. 05, 2012 Rise Set
Actual Time 7:20 AM CST 5:21 PM CST
Civil Twilight 6:53 AM CST 5:49 PM CST
Nautical Twilight 6:22 AM CST 6:20 PM CST
Astronomical Twilight 5:52 AM CST 6:50 PM CST
Moon 2:26 PM CST (1/5) 4:06 AM CST (1/5)
Length of Visible Light 10h 56m
Length of Day
10h 01m
Waxing Gibbous, 88% of the Moon is Illuminated
Jan 5
Waxing Gibbous
Jan 9
Full
Jan 16
Last Quarter
Jan 23
New
Jan 30
First Quarter

Hourly Weather History & Observations

Time (CST) Temp. Windchill Dew Point Humidity Pressure Visibility Wind Dir Wind Speed Gust Speed Precip Events Conditions
12:53 AM 43.0 °F - 33.1 °F 68% 30.30 in 10.0 mi Calm Calm - N/A   Clear
1:53 AM 42.1 °F 37.7 °F 33.1 °F 70% 30.29 in 10.0 mi NNW 6.9 mph - N/A   Clear
2:53 AM 39.0 °F - 32.0 °F 76% 30.29 in 10.0 mi Calm Calm - N/A   Clear
3:53 AM 35.1 °F - 32.0 °F 89% 30.29 in 10.0 mi Calm Calm - N/A   Clear
4:53 AM 33.1 °F 30.0 °F 30.0 °F 89% 30.28 in 10.0 mi SW 3.5 mph - N/A   Clear
5:53 AM 33.1 °F 27.7 °F 30.0 °F 89% 30.27 in 10.0 mi SW 5.8 mph - N/A   Clear
6:53 AM 33.1 °F 28.7 °F 30.9 °F 92% 30.27 in 10.0 mi SW 4.6 mph - N/A   Clear
7:53 AM 35.1 °F 30.1 °F 30.9 °F 85% 30.28 in 10.0 mi SW 5.8 mph - N/A   Clear
8:53 AM 41.0 °F 39.0 °F 34.0 °F 76% 30.29 in 10.0 mi SW 3.5 mph - N/A   Clear
9:53 AM 48.0 °F - 36.0 °F 63% 30.30 in 10.0 mi Calm Calm - N/A   Clear
10:53 AM 55.4 °F - 33.8 °F 44% 30.29 in 10.0 mi West 3.5 mph - N/A   Clear
11:53 AM 60.1 °F - 30.0 °F 32% 30.26 in 10.0 mi WSW 4.6 mph - N/A   Clear
12:53 PM 62.1 °F - 30.9 °F 31% 30.22 in 10.0 mi Variable 3.5 mph - N/A   Clear
1:53 PM 64.0 °F - 28.9 °F 27% 30.19 in 10.0 mi Variable 5.8 mph - N/A   Clear
2:53 PM 64.9 °F - 30.0 °F 27% 30.18 in 10.0 mi SW 4.6 mph - N/A   Clear
3:53 PM 64.9 °F - 28.9 °F 26% 30.17 in 10.0 mi WSW 4.6 mph - N/A   Clear
4:53 PM 63.0 °F - 30.9 °F 30% 30.15 in 10.0 mi SW 3.5 mph - N/A   Clear
5:53 PM 57.9 °F - 30.0 °F 35% 30.16 in 10.0 mi South 3.5 mph - N/A   Clear
6:53 PM 55.9 °F - 30.0 °F 37% 30.15 in 10.0 mi South 4.6 mph - N/A   Clear
7:53 PM 52.0 °F - 30.9 °F 45% 30.15 in 10.0 mi South 3.5 mph - N/A   Clear
8:53 PM 46.9 °F - 32.0 °F 56% 30.14 in 10.0 mi South 6.9 mph - N/A   Clear
9:53 PM 52.0 °F - 32.0 °F 47% 30.13 in 10.0 mi South 8.1 mph - N/A   Clear
10:53 PM 51.1 °F - 33.1 °F 50% 30.10 in 10.0 mi South 5.8 mph - N/A   Clear
11:53 PM 50.0 °F - 34.0 °F 54% 30.08 in 10.0 mi SSW 6.9 mph - N/A   Clear